Weather Roundup
Issued by NWS Springfield, MO

Home | Current Version | Previous Version | Graphics & Text | Print | Product List | Glossary On
Versions: 1 2 3 4 5 6 7 8 9 10 11 12 13 14 15 16 17 18 19 20 21 22 23 24 25 26 27 28 29 30 31 32 33 34 35 36 37 38 39 40 41 42 43 44 45 46 47 48 49 50
000
NZUS99 KSGF 261007
HRRSGF

HOURLY WEATHER
NATIONAL WEATHER SERVICE SPRINGFIELD MO
500 AM CDT TUE JUL 26 2016

......SGF CWA......

CITY           SKY/WX    TMP DP  RH WIND       PRES   REMARKS
SPRINGFIELD    CLOUDY    74  71  91 E5        30.02S
JOPLIN         PTCLDY    74  72  93 E5        30.00F
WEST PLAINS    CLOUDY    74  71  91 CALM      30.04F
ROLLA          CLEAR     70  69  97 NE5       30.02S
OSAGE BEACH    CLOUDY    71  70  96 NE5       30.04R
BRANSON        CLOUDY    72  72 100 CALM      30.03S

......SURROUNDING SGF CWA......

CITY           SKY/WX    TMP DP  RH WIND       PRES   REMARKS
CHANUTE        CLOUDY    74  72  93 N5        30.02R
PARSONS          N/A    N/A N/A N/A MISG      30.02S
COFFEYVILLE    CLOUDY    75  73  93 N6        30.00S
EMPORIA        CLOUDY    73  72  96 NE3       30.05S
GROVE OK       CLOUDY    73  73 100 CALM      30.00S
ROGERS AR      CLOUDY    74  72  93 E3        30.03R
SILOAM SPRINGS PTCLDY    73  64  73 CALM      30.03R
HARRISON AR    CLOUDY    73  72  96 CALM      30.03S
NEAR YELLVILLE CLOUDY    73  70  88 CALM      29.98S

......KANSAS AND MISSOURI......

CITY           SKY/WX    TMP DP  RH WIND       PRES   REMARKS
KANSAS CTY INT CLEAR     70  67  90 NE5       30.06R
DOWNTOWN KC    CLEAR     73  67  81 NE5       30.04S
COLUMBIA       CLEAR     71  69  93 NE7       30.04S
SEDALIA        CLOUDY    72  70  93 NE3       30.05S
ST JOSEPH      CLEAR     65  64  97 N5        30.06R
ST LOUIS       CLOUDY    78  73  84 NW6       30.02R
SPIRIT OF STL  CLOUDY    77  73  87 N5        30.01R
KIRKSVILLE     CLEAR     63  62  97 N3        30.07S FOG
WICHITA        PTCLDY    76  72  87 N5        30.04S
TOPEKA         CLEAR     67  65  93 CALM      30.05R FOG
OLATHE         CLEAR     71  68  90 N5        30.05S

......TENNESSEE......

CITY           SKY/WX    TMP DP  RH WIND       PRES   REMARKS
MEMPHIS        CLEAR     82  73  74 SE5       29.98R
NASHVILLE      CLEAR     75  71  87 CALM      30.03R

......ARKANSAS.......

CITY           SKY/WX    TMP DP  RH WIND       PRES   REMARKS
FAYETTEVILLE   MOCLDY    72  72 100 CALM      30.01S
FT SMITH       CLOUDY    76  70  82 SE5       29.97R
LITTLE ROCK    CLEAR     81  74  79 N3        29.97R

......OKLAHOMA.......

CITY           SKY/WX    TMP DP  RH WIND       PRES   REMARKS
TULSA          CLOUDY    77  75  93 N3        29.96F
PONCA CITY     CLOUDY    75  72  90 CALM      30.01S
MCALESTER      MOCLDY    78  73  84 CALM      29.99S
OKLAHOMA CITY  CLOUDY    74  71  91 CALM      29.99F

......IOWA............

CITY           SKY/WX    TMP DP  RH WIND       PRES   REMARKS
DES MOINES     CLEAR     70  66  87 CALM      30.07S
QUAD CITIES    PTCLDY    67  63  87 CALM      30.05S

......ILLINOIS........

CITY           SKY/WX    TMP DP  RH WIND       PRES   REMARKS
QUINCY         CLEAR     67  65  93 NE6       30.04S
CHICAGO        PTCLDY    70  64  81 CALM      30.04R




USA.gov is the U.S. government's official web portal to all federal, state and local government web resources and services.